Regional Weather Roundup
Issued by NWS

Home | Current Version | Previous Version | Text Only | Print | Product List | Glossary On
Versions: 1 2 3 4 5 6 7 8 9 10 11 12 13 14 15 16 17 18 19 20 21 22 23 24 25 26 27 28 29 30 31 32 33 34 35 36 37 38 39 40 41 42 43 44 45 46 47 48 49 50
173
ASUS44 KLUB 221510
RWRTX
WEST TEXAS WEATHER ROUNDUP
NATIONAL WEATHER SERVICE LUBBOCK TX
1000 AM CDT FRI MAY 22 2015

NOTE: "FAIR" INDICATES FEW OR NO CLOUDS BELOW 12,000 FEET WITH NO
SIGNIFICANT WEATHER AND/OR OBSTRUCTIONS TO VISIBILITY.

TXZ004-006>008-010-012-014-016-OKZ002-221600-
TEXAS PANHANDLE/OKLAHOMA PANHANDLE

CITY           SKY/WX    TMP DP  RH WIND       PRES   REMARKS
AMARILLO       CLOUDY    53  51  93 SE13      30.15F
BORGER         CLOUDY    55  52  89 S10       30.14F
CANADIAN       DRIZZLE   54  53  97 SE9       30.16R
DALHART        CLOUDY    52  49  89 S14       30.13S
DUMAS          CLOUDY    51  49  96 S13       30.13S
GUYMON         CLOUDY    53  51  93 S10G21    30.12R
HEREFORD       CLOUDY    54  53  97 MISG      30.15F
PAMPA          CLOUDY    53  51  95 SE14      30.14F FOG
PERRYTON       CLOUDY    53  51  94 SE17      30.14S
$$

TXZ026-029-035-045-048-221600-
SOUTHERN PANHANDLE/SOUTH PLAINS/ROLLING PLAINS

CITY           SKY/WX    TMP DP  RH WIND       PRES   REMARKS
CHILDRESS      RAIN      56  55  97 SE14      30.13S FOG
SEMINOLE       CLOUDY    57  57  98 E3        30.13S
LUBBOCK        CLOUDY    55  53  93 E7        30.14R
PLAINVIEW      CLOUDY    55  54  96 SE5       30.13S FOG
SNYDER         DRIZZLE   58  57  98 CALM      30.12S
$$

TXZ052-054-060>062-072-078-127-140-154-169-221600-
PERMIAN BASIN/CONCHO VALLEY/BIG COUNTRY/EDWARDS PLATEAU

CITY           SKY/WX    TMP DP  RH WIND       PRES   REMARKS
ABILENE        CLOUDY    61  59  93 SE13      30.12S FOG
BIG SPRING     CLOUDY    61  59  92 NE5       30.12F
BROWNWOOD      CLOUDY    63  63 100 SE7       30.13S FOG
JUNCTION       CLOUDY    63  63 100 NE8       30.10R FOG
MIDLAND        LGT RAIN  61  59  93 E5        30.10S FOG
ODESSA         CLOUDY    60  58  92 NE6       30.11S FOG
SAN ANGELO     CLOUDY    65  61  87 E8        30.10S
SONORA         CLOUDY    66  66 100 SE6       30.13R
SWEETWATER     CLOUDY    60  60 100 SE12      30.14S
WINK           CLOUDY    61  58  90 SE3       30.09R FOG
$$

TXZ055-058-074-075-080-082-221600-
FAR WEST/SOUTHWEST MOUNTAINS/TRANS PECOS

CITY           SKY/WX    TMP DP  RH WIND       PRES   REMARKS
ALPINE         CLOUDY    62  59  90 CALM      30.20R
DRYDEN           N/A     68  66  93 S7        30.06R
EL PASO        CLOUDY    62  54  74 SE8       30.08S
FORT STOCKTON  CLOUDY    59  59 100 W5        30.10S
GUADALUPE PASS CLOUDY    52  51  97 E7        30.17R FOG
MARFA          CLOUDY    63  59  88 S12       30.17S
PECOS          CLOUDY    58  57  97 CALM      30.11S FOG
PRESIDIO       FAIR      74  60  61 E3        30.05F
$$

TXZ014-016-019-021>030-083-221600
TEXAS TECH WEST TEXAS MESONET/TEXAS PANHANDLE/NORTHERN SOUTH PLAINS

CITY           SKY/WX    TMP DP  RH WIND       PRES   REMARKS
ABERNATHY 5ENE   N/A     53  52  95 E7        30.16S
AMARILLO 9NNE    N/A     54  51  88 SE12      30.14S
AMARILLO 7SSE    N/A     53  51  95 SE8       30.15F
AMHERST 1NE      N/A     51  51  99 SE6       30.15S
BOOTLEG 11WNW    N/A     51  49  92 S6        30.16S
CANADIAN 6E      N/A     52  51  99 SE14      30.15R
CAPROCK CYN SP   N/A     54  54  99 SE3       30.16S
CHILDRESS 2NNE   N/A     55  54  96 E17       30.12F
CLARENDON 2WSW   N/A     54  52  92 E10       30.15S
CLAUDE 12SW      N/A     51  51 100 SE8       30.15S
DIMMITT 2NE      N/A     51  51  98 SE7       30.15S
FLOYDADA 2NNE    N/A     53  53  98 E8        30.14S
FRIONA 2NE       N/A     52  51  97 SE7       30.15F
GOODLETT 3W    LGT RAIN  56  54  93 E10       30.13F
HART 3N          N/A     52  51  97 SE8       30.14F
HEREFORD 2NW     N/A     52  50  93 SE5       30.15S
MCLEAN 1E        N/A     51  51  99 SE10      30.14F
MEMPHIS 1NE      N/A     55  54  98 E7        30.15S
MULESHOE 2SSW    N/A     52  52  98 SE6       30.14F
OLTON 6S         N/A     52  51  94 E6        30.15S
PALO DURO SP     N/A     52  51  97 SE6       30.16S
PAMPA 2E         N/A     52  52  99 SE13      30.14F
PLAINVIEW 1S     N/A     52  52  98 E5        30.14S
SILVERTON 7ESE   N/A     53  52  97 E6        30.16S
TULIA 2ENE       N/A     53  52  99 SE8       30.15F
UMBARGER 3NNE    N/A     52  51  96 SE10      30.15S
$$

TXZ033>036-039>041-045>048-221600
TEXAS TECH WEST TEXAS MESONET/SOUTH PLAINS

CITY           SKY/WX    TMP DP  RH WIND       PRES   REMARKS
AIKEN 3WSW       N/A     54  53  95 E7        30.16S
ANDREWS 2NE      N/A     58  56  93 E6        30.12S
ANTON 6SSW       N/A     53  51  95 E7        30.15R
BROWNFIELD 2S    N/A     54  53  97 E5        30.13S
DENVR CTY 7WNW   N/A     54  53  96 E2        30.13S
GAIL 2ESE        N/A     57  56  96 NE3       30.11F
LAMESA 2SE       N/A     56  56  98 E6        30.13S
LEVELLAND 4S     N/A     53  51  92 E5        30.14S
LUBBOCK 3WNW     N/A     54  53  94 E6        30.15R
MORTON 1ENE      N/A     52  51  95 SE5       30.15R
ODONNELL 1N      N/A     54  53  94 NE9       30.13S
PLAINS 3N        N/A     53  52  97 E3        30.14S
RALLS 1SE        N/A     54  53  98 E8        30.15S
REESE CENTER     N/A     53  51  95 E6        30.14S
SEAGRAVES 1SW    N/A     55  55  98 E2        30.13R
SEMINOLE 2NNE    N/A     56  55  97 E6        30.12S
SLATON 2NE       N/A     54  53  98 E7        30.14R
SNYDER 3E        N/A     57  57  98 SE2       30.12R
SUNDOWN 8SW      N/A     52  52  97 NE2       30.14S
TAHOKA 3NNE      N/A     55  54  98 E8        30.13R
WOLFFORTH 6SSW   N/A     55  54  98 E7        30.14S
$$

TXZ031-032-036>038-042>044-221600-
TEXAS TECH WEST TEXAS MESONET/ROLLING PLAINS

CITY           SKY/WX    TMP DP  RH WIND       PRES   REMARKS
ASPERMONT 3NE  LGT RAIN  58  58  97 CALM      30.13R
FLUVANNA 3WNW    N/A     56  54  95 N7        30.12S
GRAHAM 5SSW      N/A     54  53  97 NE7       30.13S
GUTHRIE 10WSW    N/A     57  56  95 NE3       30.14R
HASKELL 1NW      N/A     59  58  96 E7        30.11F
JAYTON 1SSE      N/A     56  56  97 NE3       30.13S
KNOX CITY 3NW    N/A     59  56  89 E7        30.11F
LK A HENRY 1NW   N/A     56  56  97 NE6       30.12S
ODELL 4ENE     RAIN      56  56  99 NE6       30.16R
PADUCAH 10SW   LGT RAIN  57  56  97 E5        30.14S
POST 1NE         N/A     55  54  96 NE7       30.13S
SEYMOUR 3NW      N/A     60  58  92 E8        30.11F
SPUR 1W          N/A     56  55  95 NE6       30.13F
WEINERT 2NNE     N/A     60  58  96 E8        30.12S
WHITE RVR 6NE    N/A     55  54  97 NE6       30.13S
$$

TXZ052-054-060>062-072-078-127-140-154-169-221600-
TEXAS TECH WEST TEXAS MESONET/PERMIAN BASIN/
CONCHO VALLEY/BIG COUNTRY/EDWARDS PLATEAU

CITY           SKY/WX    TMP DP  RH WIND       PRES   REMARKS
COYANOSA 2N      N/A     60  60  97 W5        30.10S
JUNCTION 1SSW    N/A     64  63  97 N6        30.11R
MERTZON 3NNE     N/A     61  61  98 E3        30.12R
SAN ANGELO 7NW   N/A     61  59  94 E8        30.11R
STRLNG CT 4WSW   N/A     60  60  98 E9        30.11S
ST LAWRNCE 5SW   N/A     62  61  94 SE12      30.10S
SWEETWATR 11SW   N/A     59  59 100 SE13      30.12S
WALL 1E          N/A     62  59  90 E7        30.11S
$$

TXZ055-058-074-075-080-082-221600-
TEXAS TECH WEST TEXAS MESONET/FAR WEST/SOUTHWEST MOUNTAINS/TRANS PECOS

CITY           SKY/WX    TMP DP  RH WIND       PRES   REMARKS
PRSMN GAP BBNP   N/A     72  62  71 N2        30.08R
$$



USA.gov is the U.S. government's official web portal to all federal, state and local government web resources and services.